Location: Shaftesbury Settlement
(56.1590°N, 117.4369°W)
Time: 07:19:22
(UTC+00:00)

Envisat - Visible Passes

Search period start: 24 August 2019 00:00
Search period end: 03 September 2019 00:00
Orbit: 764 x 766 km, 98.1° (Epoch: 24 August)

Date Brightness Start Highest point End Pass type
(mag) Time Alt. Az. Time Alt. Az. Time Alt. Az.
25 Aug 6.4 03:54:43 10° W 03:56:11 11° W 03:57:38 10° WNW visible
28 Aug 6.1 03:42:13 10° WSW 03:44:44 14° W 03:47:14 10° NW visible
31 Aug 5.9 03:30:09 10° WSW 03:33:18 16° W 03:36:28 10° NW visible
02 Sep 6.5 03:58:37 10° W 03:59:16 10° W 03:59:55 10° WNW visible
